Regional Weather Roundup
Issued by NWS

Home | Current Version | Previous Version | Text Only | Print | Product List | Glossary Off
Versions: 1 2 3 4 5 6 7 8 9 10 11 12 13 14 15 16 17 18 19 20 21 22 23 24 25 26 27 28 29 30 31 32 33 34 35 36 37 38 39 40 41 42 43 44 45 46 47 48 49 50

954
ASUS44 KMEG 071910
RWRTN
TENNESSEE HOURLY STATE WEATHER ROUNDUP
NATIONAL WEATHER SERVICE MEMPHIS TN
100 PM CST WED DEC 07 2016

TNZ002-004-019-021-049-052-054-088>092-072000-
WEST TENNESSEE

CITY           SKY/WX    TMP DP  RH WIND       PRES   REMARKS
MEMPHIS INTL   CLOUDY    45  33  63 VRB6      30.15F
NWS MEMPHIS      N/A     45 N/A N/A MISG        N/A
JACKSON        CLOUDY    45  34  65 VRB3      30.15F
DYERSBURG        N/A    N/A N/A N/A MISG        N/A
UNION CITY     MOSUNNY   43  30  61 N8        30.16F
PARIS          SUNNY     41  27  56 N6        30.16F
HUNTINGDON     MOSUNNY   46  32  57 VRB5      30.15S
LEXINGTON      MOSUNNY   45  30  57 N6        30.13F
$$

TNZ008-025-027-028-033-062-065-066-072000-
NORTH MIDDLE TENNESSEE

CITY           SKY/WX    TMP DP  RH WIND       PRES   REMARKS
NASHVILLE      PTSUNNY   48  32  53 VRB3      30.12F
PORTLAND       SUNNY     43  30  61 VRB3G12   30.12F
CLARKSVILLE    SUNNY     46  28  49 N5        30.14F
SMYRNA         MOSUNNY   46  34  62 N9        30.12F
GALLATIN       SUNNY     46  32  57 NE5       30.14F
CROSSVILLE     CLOUDY    41  34  76 N8        30.06S
$$

TNZ061-075-076-078-094-096-097-072000-
SOUTH MIDDLE TENNESSEE

CITY           SKY/WX    TMP DP  RH WIND       PRES   REMARKS
FAYETTEVILLE   CLOUDY    43  36  75 W5        30.11F
TULLAHOMA      CLOUDY    39  36  87 N5        30.10F
WINCHESTER     CLOUDY    43  36  75 NW5       30.10S
MCMINNVILLE    CLOUDY    43  36  75 VRB6        N/A
COLUMBIA       CLOUDY    43  37  81 CALM      30.11F
SHELBYVILLE    CLOUDY    43  36  75 NE6       30.11F
$$

TNZ017-018-042-046-047-072000-
NORTHEAST TENNESSEE

CITY           SKY/WX    TMP DP  RH WIND       PRES   REMARKS
TRI CITIES     MOSUNNY   52  34  50 NW6       30.02F
ELIZABETHTON   DRIZZLE   54  39  58 SW7       30.00F
$$

TNZ012-013-036-069-073-074-072000-
CENTRAL EAST TENNESSEE

CITY           SKY/WX    TMP DP  RH WIND       PRES   REMARKS
KNOXVILLE      MOSUNNY   54  38  54 NE7       30.02F
OAK RIDGE      SUNNY     55  36  48 VRB5      30.04F
DOWNTOWN KNOXV SUNNY     55  39  54 E3        30.03F
GATLINBURG     SUNNY     52  37  58 SE3       30.02F
MORRISTOWN     SUNNY     52  34  50 SE6       30.02S
JACKSBORO      SUNNY     46  37  71 NE9G15    30.08F
$$

TNZ083-085-099-072000-
SOUTHEAST TENNESSEE

CITY           SKY/WX    TMP DP  RH WIND       PRES   REMARKS
CHATTANOOGA    MOSUNNY   53  37  54 CALM      30.05F
$$

SKY/WX REPORTED AS FAIR MEANS FEW OR NO CLOUDS BELOW
12 THOUSAND FEET.





USA.gov is the U.S. government's official web portal to all federal, state and local government web resources and services.